Location: Alafon
(8.4500°N, 4.2333°E)
Time: 00:21:24
(UTC+00:00)

deb Explorer IX - Pass Details

Date: 24 July 2021
Orbit: 545 x 1091 km, 38.8° (Epoch: 19 September)

Event Time Altitude Azimuth Distance (km) Brightness Sun altitude
Rises 22:23:56 0° 317° (NW) 3,885 ? -54.9°
Enters shadow 22:26:22 - 321° (NW) 3,067 ? -55.2°
Reaches altitude 10° 22:26:49 10° 322° (NW) 2,917 - -55.3°
Maximum altitude 22:33:49 54° 38° (NE) 1,239 - -56.3°
Drops below altitude 10° 22:40:14 10° 114° (ESE) 2,682 - -57.1°
Sets 22:42:47 0° 119° (ESE) 3,551 - -57.4°
